Glen Aubrey, NY

6:37 PM EST on February 05, 2016 (GMT -0500)
Binghamton Regional-Link

Weather History for KBGM - June, 2013

Change the Weather History Date:

Sunday, June 2, 2013

  Actual Average Record
Temperature  
Mean Temperature 71 °F 61 °F  
Max Temperature 78 °F 70 °F 88 °F (1978)
Min Temperature 64 °F 51 °F 37 °F (1986)
Degree Days  
Heating Degree Days 0 5  
Month to date heating degree days 0 11  
Since 1 June heating degree days 0 11  
Since 1 July heating degree days 6824 7115  
Cooling Degree Days 6 1  
Month to date cooling degree days 16 2  
Year to date cooling degree days 59 25  
Since 1 June cooling degree days 16 2  
Growing Degree Days 21 (Base 50)    
Moisture  
Dew Point 62 °F    
Average Humidity 67    
Maximum Humidity 73    
Minimum Humidity 60    
Precipitation  
Precipitation 0.12 in 0.14 in 1.00 in (1965)
Month to date precipitation 0.12 0.27  
Year to date precipitation 13.28 15.02  
Snow  
Snow 0.00 in 0.00 in 0.00 in (2002)
Month to date snowfall 0.0 0.0  
Since 1 June snowfall 0.0 0.0  
Since 1 July snowfall 69.1 83.4  
Snow Depth 0.00 in    
Sea Level Pressure  
Sea Level Pressure 29.79 in    
Wind  
Wind Speed 9 mph (WSW)    
Max Wind Speed 33 mph    
Max Gust Speed 47 mph    
Visibility 10 miles    
Events Fog , Rain , Thunderstorm    
T = Trace of Precipitation, MM = Missing Value Source: NWS Daily Summary

Daily Weather History Graph

Daily Weather History Graph

Search for Another Location

Airport or City:

Trip Planner

Search our weather history database for the weather conditions in past years. The results will help you decide how hot, cold, wet, or windy it might be!

Date:

Astronomy

Jun. 02, 2013 Rise Set
Actual Time 5:29 AM EDT 8:34 PM EDT
Civil Twilight 4:55 AM EDT 9:08 PM EDT
Nautical Twilight 4:12 AM EDT 9:52 PM EDT
Astronomical Twilight 3:21 AM EDT 10:43 PM EDT
Moon 2:01 AM EDT (6/2) 2:57 PM EDT (6/2)
Length of Visible Light 16h 12m
Length of Day
15h 05m
Waning Crescent, 31% of the Moon is Illuminated
Jun 2
Waning Crescent
Jun 8
New
Jun 16
First Quarter
Jun 23
Full
Jun 30
Last Quarter

Hourly Weather History & Observations

Time (EDT) Temp. Dew Point Humidity Pressure Visibility Wind Dir Wind Speed Gust Speed Precip Events Conditions
12:53 AM 73.9 °F 62.1 °F 66% 29.84 in 10.0 mi SSW 8.1 mph 16.1 mph N/A   Clear
1:53 AM 73.0 °F 61.0 °F 66% 29.82 in 10.0 mi SSW 8.1 mph - N/A   Clear
2:53 AM 72.0 °F 62.1 °F 71% 29.80 in 10.0 mi South 9.2 mph - N/A   Clear
3:53 AM 71.1 °F 62.1 °F 73% 29.79 in 10.0 mi South 9.2 mph - N/A   Clear
4:53 AM 71.1 °F 63.0 °F 75% 29.79 in 10.0 mi SSW 6.9 mph - N/A   Scattered Clouds
5:53 AM 71.1 °F 63.0 °F 75% 29.78 in 10.0 mi SSW 9.2 mph - N/A   Scattered Clouds
6:53 AM 71.1 °F 63.0 °F 75% 29.79 in 10.0 mi SSW 8.1 mph - N/A   Overcast
7:53 AM 73.0 °F 64.0 °F 73% 29.79 in 10.0 mi SW 9.2 mph - N/A   Scattered Clouds
8:53 AM 73.9 °F 64.0 °F 71% 29.78 in 10.0 mi SSW 10.4 mph 17.3 mph N/A   Clear
9:53 AM 73.9 °F 63.0 °F 68% 29.78 in 10.0 mi SW 10.4 mph - N/A   Mostly Cloudy
10:53 AM 75.9 °F 64.0 °F 67% 29.78 in 10.0 mi SSW 11.5 mph - N/A   Mostly Cloudy
11:53 AM 77.0 °F 64.0 °F 64% 29.77 in 10.0 mi SW 12.7 mph 19.6 mph N/A   Scattered Clouds
12:51 PM 73.4 °F 64.4 °F 73% 29.81 in 10.0 mi West 9.2 mph 18.4 mph 0.00 in Rain Light Rain
12:53 PM 73.0 °F 64.9 °F 76% 29.78 in 10.0 mi West 10.4 mph 18.4 mph 0.00 in Rain Light Rain
1:53 PM 73.9 °F 64.0 °F 71% 29.77 in 10.0 mi WSW 12.7 mph 19.6 mph 0.00 in   Scattered Clouds
2:31 PM 73.4 °F 62.6 °F 69% 29.81 in 10.0 mi WSW 15.0 mph 21.9 mph 0.01 in Thunderstorm Mostly Cloudy
2:43 PM 64.4 °F 60.8 °F 88% 29.82 in 0.5 mi West 16.1 mph 47.2 mph 0.11 in Fog , Rain , Thunderstorm Heavy Rain
2:50 PM 66.2 °F 60.8 °F 83% 29.82 in 10.0 mi West 11.5 mph - 0.12 in Rain , Thunderstorm Light Rain
2:53 PM 66.9 °F 61.0 °F 81% 29.79 in 10.0 mi West 12.7 mph - 0.12 in Thunderstorm Mostly Cloudy
3:00 PM 68.0 °F 59.0 °F 73% 29.81 in 10.0 mi West 12.7 mph - N/A   Mostly Cloudy
3:53 PM 73.9 °F 64.0 °F 71% 29.77 in 10.0 mi WSW 10.4 mph - N/A   Partly Cloudy
4:53 PM 77.0 °F 64.0 °F 64% 29.74 in 10.0 mi SW 11.5 mph 17.3 mph N/A   Clear
5:53 PM 75.0 °F 60.1 °F 60% 29.75 in 10.0 mi SW 10.4 mph 18.4 mph N/A   Partly Cloudy
6:53 PM 73.9 °F 61.0 °F 64% 29.76 in 10.0 mi West 10.4 mph 17.3 mph 0.00 in Rain Light Rain
7:53 PM 72.0 °F 61.0 °F 68% 29.78 in 10.0 mi SSW 3.5 mph - 0.00 in   Mostly Cloudy
8:53 PM 70.0 °F 57.9 °F 65% 29.80 in 10.0 mi NNW 5.8 mph - N/A   Mostly Cloudy
9:53 PM 68.0 °F 59.0 °F 73% 29.82 in 10.0 mi NW 4.6 mph - 0.00 in   Scattered Clouds
10:53 PM 68.0 °F 57.9 °F 70% 29.83 in 10.0 mi NNW 4.6 mph - N/A   Mostly Cloudy
11:53 PM 64.9 °F 55.0 °F 70% 29.84 in 10.0 mi NNE 3.5 mph - N/A   Mostly Cloudy